EST,Max TemperatureF,Mean TemperatureF,Min TemperatureF,Max Dew PointF,MeanDew PointF,Min DewpointF,Max Humidity, Mean Humidity, Min Humidity, Max Sea Level PressureIn, Mean Sea Level PressureIn, Min Sea Level PressureIn, Max VisibilityMiles, Mean VisibilityMiles, Min VisibilityMiles, Max Wind SpeedMPH, Mean Wind SpeedMPH, Max Gust SpeedMPH,PrecipitationIn, CloudCover, Events, WindDirDegrees
2012-11-1,48,45,42,43,39,37,93,78,64,29.51,29.48,29.45,10,10,10,12,3,,0.00,8,Rain,153
2012-11-2,46,42,39,41,36,33,93,78,66,29.62,29.54,29.48,10,10,10,8,2,,0.01,8,Rain,259
2012-11-3,42,40,37,35,33,30,87,77,67,29.80,29.71,29.61,10,10,10,12,7,18,0.00,8,Rain,283
2012-11-4,39,35,33,33,29,21,86,76,60,29.98,29.89,29.81,10,10,8,10,6,17,0.00,8,Snow,297
2012-11-5,33,30,28,25,20,13,86,68,45,30.10,30.02,29.94,10,8,1,12,5,20,0.00,8,Snow,332
2012-11-6,34,24,15,19,14,11,88,64,45,30.27,30.21,30.09,10,10,10,13,4,20,0.00,4,,319
2012-11-7,34,22,10,23,14,7,93,73,46,30.28,30.17,29.99,10,9,1,9,1,,0.00,3,,11
2012-11-8,36,33,30,32,29,19,96,83,56,29.97,29.87,29.81,10,4,1,12,6,,0.08,8,Snow,344
2012-11-9,43,38,33,30,27,20,82,68,45,30.08,29.96,29.83,10,10,10,12,7,20,0.00,6,,311
2012-11-10,43,33,23,30,22,13,88,62,31,30.48,30.27,30.05,10,10,10,12,5,25,0.00,3,,329
2012-11-11,52,40,27,34,27,23,92,73,49,30.47,30.44,30.36,10,10,9,5,0,,0.00,4,,170
2012-11-12,66,46,27,48,37,25,92,66,37,30.44,30.31,30.13,10,10,7,18,3,29,0.00,0,,161
2012-11-13,63,44,24,51,36,21,93,83,62,30.49,30.23,30.02,10,8,2,18,6,28,0.36,7,Rain,270
2012-11-14,39,28,17,24,19,14,93,84,47,30.61,30.52,30.44,10,5,0,12,0,,0.00,3,Fog,345
2012-11-15,39,26,14,25,17,11,93,83,47,30.53,30.44,30.34,10,7,0,4,0,,0.00,3,Fog,250
2012-11-16,41,28,14,27,19,10,93,82,49,30.47,30.37,30.28,10,8,0,5,0,,0.00,3,Fog,330
2012-11-17,44,32,18,27,21,15,93,74,34,30.72,30.59,30.43,10,9,5,6,1,,0.00,2,,336
2012-11-18,44,27,10,19,13,5,92,71,20,30.77,30.71,30.66,10,10,10,0,0,,0.00,0,,-1
2012-11-19,46,28,9,20,15,5,89,72,30,30.65,30.49,30.32,10,10,10,4,0,,0.00,0,,340
2012-11-20,48,29,10,24,17,7,88,72,29,30.31,30.24,30.17,10,10,7,4,0,,0.00,0,,270
2012-11-21,50,36,19,29,23,17,92,77,38,30.32,30.27,30.21,10,10,8,5,0,,0.00,1,,190
2012-11-22,55,36,16,29,21,13,89,74,31,30.30,30.22,30.11,10,10,9,4,0,,0.00,0,,275
2012-11-23,54,35,16,32,25,13,92,70,34,30.09,29.84,29.60,10,10,8,12,1,20,0.00,2,,169
2012-11-24,37,32,26,37,26,16,97,77,59,29.55,29.51,29.45,10,8,2,13,4,30,0.05,8,Rain-Snow,302
2012-11-25,27,20,14,19,13,9,80,66,49,29.79,29.61,29.50,10,6,1,15,8,28,0.00,6,Snow,291
2012-11-26,30,19,7,23,16,3,84,72,51,30.25,29.93,29.76,10,8,2,8,3,16,0.00,6,Snow,307
2012-11-27,28,17,6,20,13,2,88,78,64,30.32,30.29,30.21,10,10,9,4,1,,0.00,6,Snow,15
2012-11-28,30,18,5,23,15,1,100,84,61,30.30,30.18,30.02,10,6,0,4,0,,0.00,7,Fog-Snow,330
2012-11-29,33,27,19,27,20,9,88,74,53,30.23,30.08,29.98,10,6,1,14,5,23,0.02,8,Snow,313
2012-11-30,19,8,-2,10,1,-7,88,69,46,30.63,30.49,30.20,10,10,10,8,4,,0.00,1,,345